Время (UTC), дата Ветер
(°,м/с) 
Видим.   Явления Облачность Т
(°С)
Тd
(°С)
f(%) Тe
(°С)
Pmin
(гПа)
dP
(гПа)
Po
(мм)
O2
(г/м3)
Тmin Tmax R s Состояние
почвы
00 16.07.14 030 (СВ) 20000 м    10/10 300 м 
[St]
+20.2 +17.4 84 +33  1010.5  0.3  751  278           
03 16.07.14 100 (В) 20000 м    9/3 600 м кучево-дожд., средняя, верхняя 
[Cb cap|Ac trans|Ci ing]
+25.3 +19 68 +42  1009.6  -0.8  750  272           
06 16.07.14 150 (ЮВ) 20000 м    9/3 600 м кучево-дожд., средняя, верхняя 
[Cb cap|Ac cuf|Cc]
+26.9 +18 58 +41  1008  -1.5  749  271           
12 16.07.14 050 (СВ) 20000 м    9/3 600 м кучево-дожд., средняя, верхняя 
[Cb cap|Ac cuf|Ci fib]
+20.5 +18.3 87 +35  1010  751  277           
15 16.07.14 тихо ()   20000 м    9/3 600 м кучево-дожд., средняя 
[Cb cap|Ac trans]
+18.5 +17.7 95 +32  1010.2  0.2  751  279           
18 16.07.14 010 (С) 20000 м    10/1 1000 м средняя 
[Sc diur, vesp|Ac lent]
+18.4 +17.6 95 +33  1010.5  0.2  751  279           
00 17.07.14 050 (СВ) 10 км    10/8 300 м кучево-дожд., средняя 
[Cb cap|Ac As]
+19.5 +17.7 89 +35  1011.1  0.4  751  279  +18         
03 17.07.14 030 (СВ) 20000 м    8/4 600 м кучево-дожд., средняя, верхняя 
[Cb cap|Ac lent|Cc]
+23.2 +18.9 77 +39  1010.8  -0.2  751  275           
06 17.07.14 050 (СВ) 20000 м    6/4 600 м кучево-дожд., верхняя 
[Cb calv|Ci fib]
+26 +19.1 66 +43  1008.5  -2.1  750  271           
12 17.07.14 060 (СВ) 20000 м  {гроза}  10/6 600 м кучево-дожд., средняя 
[Cb cap|Ac und]
+21.8 +19.4 86 +39  1009.1  0.8  750  275           
15 17.07.14 100 (В) 20000 м  зарница  8/6 600 м кучево-дожд., средняя 
[Cb cap|Ac trans]
+20.2 +18.5 90 +36  1008.8  -0.3  750  277           
18 17.07.14 060 (СВ) 20000 м  {ливн. осадки}  10/5 600 м кучево-дожд., средняя 
[Cb cap|Ac und]
+19.4 +18.3 93 +35  1008.2  -0.7  749  278           
21 17.07.14 050 (СВ) 2000 м  ливневой дождь  10/10 600 м кучево-дожд. 
[Cb cap]
+18.4 +17.7 96 +34  1008.5  0.3  749  279  +18.4    11    влажная 
00 18.07.14 080 (В) 2000 м  ливневой дождь  10/10 600 м кучево-дожд. 
[Cb cap]
+19.5 +18.6 95 +36  1008.8  0.3  750  278  +18.3         
03 18.07.14 070 (В) 2000 м  ливневой дождь  10/10 600 м кучево-дожд. 
[Cb cap]
+19.8 +19.2 96 +38  1008.4  -0.4  749  277           
06 18.07.14 080 (В) 2000 м  ливневой дождь  10/10 600 м кучево-дожд. 
[Cb cap]
+21.1 +20.1 94 +40  1007.6  -0.7  749  275           
12 18.07.14 080 (В) 4000 м  слаб. ливневой дождь  10/10 600 м кучево-дожд. 
[Cb cap]
+19.5 +18.9 96 +37  1008.9  1.1  750  277           
15 18.07.14 070 (В) 4000 м  дымка{ливн. осадки}  10/10 600 м кучево-дожд. 
[Cb cap]
+19.1 +18.4 96 +35  1008.9  750  278           
18 18.07.14 060 (СВ) 4000 м  дымка{ливн. осадки}  10/10 600 м кучево-дожд. 
[Cb cap]
+19.1 +18.4 96 +35  1008.7  -0.2  750  278           
21 18.07.14 080 (В) 2000 м  дымка{ливн. осадки}  10/10 300 м 
[Frnb|Ns]
+19.3 +18.5 95 +35  1009.2  0.4  750  278  +19    12    мокрая 
00 19.07.14 080 (В) 2000 м  слаб. морось{ливн. осадки}  10/10 300 м 
[St]
+20 +18.9 93 +36  1010.1  751  277           
03 19.07.14 110 (В) 10 км  {дождь, морось}  9/9 300 м кучево-дожд. 
[Cb cap]
+22.8 +19.6 82 +41  1009.8  -0.2  750  274           
06 19.07.14 090 (В) 20000 м  {дождь, морось}  9/9 600 м кучево-дожд., верхняя 
[Cb cap|Cc]
+23.6 +19.2 76 +40  1009.1  -0.6  750  274           
12 19.07.14 340 (С) 10 км  слаб. ливневой дождь  10/9 600 м кучево-дожд., средняя 
[Cb cap|Ac As]
+21.5 +20.5 94 +41  1009.3  0.6  750  275           
15 19.07.14 270 (З) 10 км  {ливн. осадки}  10/6 600 м кучево-дожд., средняя 
[Cb cap|Ac As]
+19.9 +19.2 96 +38  1008.5  -0.9  749  277           
18 19.07.14 130 (ЮВ) 0500 м  туман{ливн. осадки}  10/10 300 м 
[St]
+20.1 +19.5 96 +38  1007.7  -0.8  749  276           
00 20.07.14 170 (Ю) 4000 м  дымка{дождь, туман}  10/10 300 м 
[St]
+21.7 +20.4 92 +41  1006  -0.9  748  274  +19.5         
03 20.07.14 210 (ЮЗ) 4000 м  дымка  9/9 300 м кучево-дожд. 
[Cb cap]
+25.5 +21.9 81 +49  1004.3  -1.6  746  269           
06 20.07.14 170 (Ю) 4000 м  в посл. час ливневой дождь  10/10 600 м кучево-дожд. 
[Cb cap]
+23.9 +21.9 89 +47  1002.8  -1.5  745  270           
12 20.07.14 210 (ЮЗ) 2000 м  дымка  10/5 1000 м средняя 
[Sc|Ac As]
+22.2 +20.9 92 +43  1002.2  -0.1  745  272           
15 20.07.14 160 (Ю) 2000 м  гроза, ливневой дождь  10/10 600 м кучево-дожд. 
[Cb cap]
+21.6 +20.8 95 +42  1000.8  -1.3  744  272           
18 20.07.14 140 (ЮВ) 2000 м  дымка{гроза, ливн. осадки}  10/10 600 м кучево-дожд. 
[Cb cap]
+21.8 +21 95 +43  997.3  -3.4  741  271           
21 20.07.14 150 (ЮВ) 1000 м  ливневой дождь{гроза}  10/10 600 м кучево-дожд. 
[Cb cap]
+21.1 +20.5 96 +41  994.5  -2.7  739  271  +21.1    42    мокрая 
00 21.07.14 190 (Ю) 2000 м  слаб. морось{гроза, ливн. осадки}  10/10 300 м кучево-дожд. 
[Cb cap]
+22.1 +21.3 95 +45  992.8  -1.7  738  270  +21.1         
03 21.07.14 180 (Ю) 2000 м  ливневой дождь  10/10 300 м кучево-дожд. 
[Cb cap]
+22 +21.2 95 +44  991.4  -1.4  737  269           
06 21.07.14 190 (Ю) 6{12}  2000 м  слаб. ливневой дождь  10/10 300 м кучево-дожд. 
[Cb cap]
+23.4 +22.5 95 +49  988.6  -2.7  735  267           
09 21.07.14 210 (ЮЗ) 4{12}  2000 м  дымка{ливн. осадки}  10/10 600 м кучево-дожд. 
[Cb cap]
+24.8 +21.9 84 +49  987.5  -1.1  734  265    +25  34     
12 21.07.14 240 (ЮЗ) 6{11}  10 км  в посл. час ливневой дождь  10/9 600 м кучево-дожд., средняя 
[Cb cap|Ac cuf]
+22.7 +19.3 81 +41  988.6  735  269           
15 21.07.14 240 (ЮЗ) 10 км    10/5 600 м кучево-дожд., средняя 
[Cb cap|Ac trans]
+20 +16 78 +31  989.9  1.2  736  273           
18 21.07.14 240 (ЮЗ) 10 км    6/3 600 м кучево-дожд., средняя 
[Cb cap|Ac lent]
+18.7 +15.6 82 +29  990.9  1.2  736  274           
21 21.07.14 230 (ЮЗ) 20000 м    6/3 600 м кучево-дожд., средняя, верхняя 
[Cb cap|Ac lent|Ci]
+18.9 +15.7 82 +29  992.1  1.2  737  274  +18.1      мокрая 
00 22.07.14 260 (З) 20000 м    8/4 600 м кучево-дожд., средняя 
[Cb cap|Ac cast]
+21.3 +16.6 75 +33  992.9  0.8  738  272           
03 22.07.14 250 (З) 6{12}  20000 м    6/4 600 м кучево-дожд., средняя 
[Cb cap|Ac lent]
+25 +17.5 63 +39  993.4  0.6  738  269           
06 22.07.14 260 (З) 5{11}  20000 м    6/4 600 м кучево-дожд., средняя, верхняя 
[Cb cap|Ac cast|Ci fib]
+26.6 +16.5 54 +38  993.7  0.3  739  268           
12 22.07.14 240 (ЮЗ) 20000 м    1/1 600 м кучево-дожд. 
[Cb cap]
+20 +16 78 +31  996.4  1.5  740  275           
15 22.07.14 170 (Ю) 20000 м    ясно 
+17.6 +16.1 91 +29  996.4  0.7  741  277           
18 22.07.14 тихо ()   20000 м    ясно 
+15.7 +15 96 +25  997.4  0.2  741  279           
00 23.07.14 260 (З) 20000 м    9/0 средняя, верхняя 
[Ac lent|Cc]
+24 +16.6 63 +36  998  -0.3  742  271           
03 23.07.14 250 (З) 20000 м    4/4 600 м кучево-дожд. 
[Cb cap]
+26 +12.9 44 +32  997.6  -0.3  741  270           
06 23.07.14 150 (ЮВ) 10 км    3/3 600 м кучево-дожд. 
[Cb cap]
+25.9 +14.1 48 +33  996.3  -1.3  740  270           
12 23.07.14 250 (З) 10 км    10/0 средняя 
[Ac As]
+20.7 +16.6 77 +33  996.5  0.5  741  274           
15 23.07.14 020 (С) 2000 м  слаб. ливневой дождь  10/8 600 м кучево-дожд., средняя 
[Cb cap|Ac As]
+18 +16.7 92 +31  997.1  0.2  741  276           
18 23.07.14 тихо ()   10 км  {ливн. осадки}  10/5 600 м кучево-дожд., средняя 
[Cb cap|Ac As]
+17.8 +17 95 +31  996.1  -0.9  740  276           
21 23.07.14 050 (СВ) 2000 м  слаб. ливневой дождь  10/10 600 м кучево-дожд. 
[Cb cap]
+17.6 +16.4 93 +31  996.5  0.3  740  277  +17.6      влажная 
00 24.07.14 020 (С) 2000 м  ливневой дождь{снег}  10/10 600 м кучево-дожд. 
[Cb cap]
+17.9 +17.1 95 +32  996.6  0.2  741  276  +17.5         
03 24.07.14 010 (С) 4000 м  слаб. ливневой дождь  10/10 600 м кучево-дожд. 
[Cb cap]
+19 +17.5 91 +35  997.3  0.7  741  275           
06 24.07.14 030 (СВ) 20000 м  в посл. час ливневой дождь  9/8 600 м кучево-дожд., верхняя 
[Cb cap|Ci fib]
+21.7 +16.7 73 +34  997.6  0.3  741  273           
12 24.07.14 050 (СВ) 20000 м  {ливн. осадки}  9/6 600 м кучево-дожд., средняя 
[Cb cap|Ac trans]
+19.4 +18.1 92 +36  1001  1.9  744  276           
15 24.07.14 250 (З) 20000 м    6/0 средняя 
[Ac trans]
+16.2 +15.5 96 +28  1002.4  1.3  745  280           
18 24.07.14 тихо ()   2000 м  дымка  3/0 средняя 
[Ac trans]
+14.8 +14.2 96 +22  1003  0.6  745  282           
21 24.07.14 тихо ()   2000 м  дымка  3/0 средняя 
[Ac trans]
+16.2 +15.6 96 +26  1004.8  1.7  747  281  +14.8    0.0    влажная 
00 25.07.14 050 (СВ) 4000 м  дымка  3/1 600 м кучево-дожд., средняя 
[Cb calv|Ac lent]
+22.5 +16.2 68 +33  1006.2  1.7  748  275           
03 25.07.14 160 (Ю) 20000 м    5/5 600 м кучево-дожд. 
[Cb calv]
+25.6 +16.4 57 +37  1006.6  0.4  748  272           
06 25.07.14 230 (ЮЗ) 20000 м    8/5 600 м кучево-дожд., средняя, верхняя 
[Cb cap|Ac lent|Ci]
+27.3 +17.1 54 +40  1006.5  0.4  748  270           
12 25.07.14 190 (Ю) 10 км    8/3 1000 м средняя 
[Sc diur, vesp|Ac cast]
+21 +19.4 91 +38  1008.9  1.7  750  276           
15 25.07.14 тихо ()   10 км    ясно 
+18.1 +17.3 95 +31  1009.1  0.1  750  279           
18 25.07.14 190 (Ю) 10 км    ясно 
+16.4 +15.9 97 +28  1008.7  -0.5  749  281           
00 26.07.14 тихо ()   10 км    ясно 
+22.7 +17.5 72 +36  1007.8  -0.6  749  275           
03 26.07.14 180 (Ю) 10 км    1/1 1000 м 
[Cu med, cong]
+26.6 +18.5 61 +42  1006.7  -1  748  270           
06 26.07.14 200 (Ю) 10 км    3/3 600 м кучево-дожд. 
[Cb cap]
+28.1 +18 54 +43  1005  -1.6  747  269           
12 26.07.14 тихо ()   10 км    1/0 средняя 
[Ac lent]
+20.1 +18.2 89 +35  1005.6  0.7  747  276           
15 26.07.14 310 (СЗ) 10 км    ясно 
+18.4 +16.8 90 +32  1005.9  0.2  747  278           
18 26.07.14 320 (СЗ) 10 км    10/0 средняя, верхняя 
[Ac lent|Cs]
+19 +16.5 85 +32  1005.5  -0.1  747  278           
00 27.07.14 340 (С) 4000 м  дымка  ясно 
+25.1 +18.2 66 +40  1006.4  0.2  748  272           
03 27.07.14 300 (СЗ) 4000 м  дымка  10/0 верхняя 
[Cs]
+29.3 +16.9 47 +42  1005.4  -0.9  747  268           
06 27.07.14 250 (З) 4000 м  дымка  10/0 верхняя 
[Cs]
+30 +18.5 50 +46  1004  -1.4  746  267           
12 27.07.14 190 (Ю) 4000 м  дымка  ясно 
+21.6 +19.4 87 +39  1003.9  0.4  746  274           
15 27.07.14 270 (З) 4000 м  дымка  ясно 
+18.4 +17.6 95 +34  1004.3  0.2  746  278           
18 27.07.14 360 (С) 4000 м  дымка  ясно 
+17.9 +17.3 96 +32  1004.1  -0.2  746  278           
00 28.07.14 170 (Ю) 2000 м  дымка  ясно 
+23.6 +19.8 79 +42  1004.5  0.1  747  272           
03 28.07.14 240 (ЮЗ) 4000 м    1/1 1000 м 
[Cu hum]
+28.1 +19.8 61 +46  1003.7  -0.7  746  268           
06 28.07.14 200 (Ю) 4000 м  дымка  10/1 1000 м верхняя 
[Cu hum|Cs]
+28.5 +19.5 58 +46  1002.6  -0.7  745  267           
12 28.07.14 210 (ЮЗ) 4000 м  дымка  ясно 
+22.5 +19.6 84 +40  1003.3  0.1  746  273           
15 28.07.14 150 (ЮВ) 4000 м  дымка  10/0 верхняя 
[Cs]
+20.6 +18.6 88 +36  1003.5  0.2  746  275           
18 28.07.14 110 (В) 4000 м  дымка  ясно 
+19.9 +17.9 88 +35  1003.6  0.1  746  276           
21 28.07.14 тихо ()   4000 м  дымка  8/0 средняя 
[Ac lent]
+19.7 +18.6 93 +35  1004  0.4  746  276  +18.8        сухая 
00 29.07.14 270 (З) 4000 м  гроза без осадков  10/10 600 м кучево-дожд. 
[Cb cap]
+23.2 +19.8 81 +41  1006.4  2.5  748  273           
06 29.07.14 170 (Ю) 10 км  {гроза, ливн. осадки}  10/4 600 м кучево-дожд., средняя 
[Cb cap|Ac As]
+26.7 +21.1 71 +48  1004.4  0.1  747  269           
12 29.07.14 тихо ()   2000 м  дымка  10/0 средняя 
[Ac und]
+23.8 +21 84 +45  1004.9  0.9  747  272           
15 29.07.14 тихо ()   2000 м  дымка  10/0 средняя 
[Ac und]
+21.7 +20.5 93 +42  1005.1  0.1  747  274           
18 29.07.14 тихо ()   2000 м  дымка  10/0 средняя 
[Ac und]
+21.2 +20 93 +40  1005.4  0.4  747  274           
21 29.07.14 тихо ()   2000 м  местами туман поземный  9/0 средняя 
[Ac As]
+21.4 +20.2 93 +41  1006  0.6  748  274  +20.7        влажная 
00 30.07.14 210 (ЮЗ) 2000 м  дымка  10/0 средняя 
[Ac und]
+25.2 +21.3 79 +47  1006  0.1  748  270           
03 30.07.14 170 (Ю) 2000 м  дымка  10/0 средняя 
[As trans]
+27.8 +22.1 71 +52  1005.2  -0.7  747  268           
06 30.07.14 150 (ЮВ) 4000 м  дымка  6/4 600 м кучево-дожд., средняя 
[Cb calv|Ac lent]
+28.3 +22.3 70 +53  1003.8  -1.3  746  267           
12 30.07.14 050 (СВ) 2000 м  в посл. час гроза{ливн. осадки}  10/10 600 м кучево-дожд. 
[Cb cap]
+19.3 +18.7 96 +37  1004  746  276           
15 30.07.14 300 (СЗ) 2000 м  гроза, ливневой дождь  10/10 600 м кучево-дожд. 
[Cb cap]
+19.1 +18.6 97 +37  1003.8  -0.2  746  277           
18 30.07.14 220 (ЮЗ) 2000 м  зарница{гроза, ливн. осадки}  10/10 600 м кучево-дожд. 
[Cb cap]
+19.3 +18.8 97 +37  1003.9  0.2  746  276           
21 30.07.14 270 (З) 0500 м  туман  10/0 средняя 
[As trans]
+19.2 +18.7 97 +37  1003.4  -0.5  746  276  +18.6    53    влажная 
00 31.07.14 270 (З) 4000 м  дымка{туман}  10/6 600 м кучево-дожд., средняя 
[Cb cap|Ac und]
+21.4 +20.6 95 +42  1003.7  0.4  746  274           
03 31.07.14 300 (СЗ) 20000 м    8/5 600 м кучево-дожд., средняя 
[Cb cap|Ac cuf]
+27 +20.1 66 +46  1003.4  0.4  746  269           
06 31.07.14 300 (СЗ) 20000 м    4/4 1000 м 
[Cu med, cong]
+28.9 +17.4 50 +42  1003.3  0.1  746  268           
12 31.07.14 180 (Ю) 20000 м    3/0 средняя, верхняя 
[Ac lent|Ci fib]
+21.2 +18.8 86 +37  1004.8  1.6  747  275           
15 31.07.14 280 (З) 20000 м    ясно 
+18.8 +18 95 +34  1005.6  0.7  747  278           
18 31.07.14 020 (С) 20000 м    5/0 верхняя 
[Ci fib]
+18.5 +17.9 96 +34  1005.8  0.2  747  278           
00 01.08.14 080 (В) 20000 м    8/4 600 м кучево-дожд., средняя, верхняя 
[Cb cap|Ac cast|Cc]
+23 +19.5 81 +41  1005.7  0.2  747  273           
03 01.08.14 170 (Ю) 20000 м    9/3 1000 м средняя, верхняя 
[Cu med, cong|Ac trans|Cs]
+28.4 +21.6 67 +51  1004.5  -1  747  267           
Время (UTC), дата Ветер
(°,м/с) 
Видим.   Явления Облачность Т
(°С)
Тd
(°С)
f(%) Тe
(°С)
Pmin
(гПа)
dP
(гПа)
Po
(мм)
O2
(г/м3)
Тmin Tmax R s Состояние
почвы